Date,TemperatureHighF,TemperatureAvgF,TemperatureLowF,DewpointHighF,DewpointAvgF,DewpointLowF,HumidityHigh,HumidityAvg,HumidityLow,PressureMaxIn,PressureMinIn,WindSpeedMaxMPH,WindSpeedAvgMPH,GustSpeedMaxMPH,PrecipitationSumIn
2013-2-1,20.2,15.6,10.4,13.2,9.4,3.3,87,76,62,30.28,29.88,13,8,22,0.00
2013-2-2,23.9,16.9,11.4,20.3,13.0,6.3,90,84,77,30.23,29.96,9,5,14,0.00
2013-2-3,22.2,14.7,6.7,18.4,9.7,3.4,89,81,65,30.03,29.86,12,4,17,0.00
2013-2-4,24.2,19.7,17.0,20.1,15.7,8.5,90,84,68,30.04,29.89,5,2,8,0.02
2013-2-5,28.1,23.0,18.2,26.2,19.3,14.0,93,86,63,29.96,29.82,10,4,15,0.00
2013-2-6,32.2,24.9,16.0,25.3,17.9,13.0,91,75,53,30.31,29.95,9,3,15,0.00
2013-2-7,38.7,30.8,24.8,29.6,24.1,19.2,88,76,68,30.30,29.88,11,5,15,0.00
2013-2-8,29.5,26.9,21.0,28.3,24.1,17.0,96,89,79,30.35,29.77,14,8,23,0.00
2013-2-9,32.4,22.4,11.9,21.1,16.7,9.5,91,80,56,30.46,30.30,6,3,11,0.09
2013-2-10,39.6,30.3,20.8,36.3,25.8,18.9,94,84,65,30.31,29.70,9,4,14,0.15
2013-2-11,46.5,38.1,32.5,44.6,32.5,26.7,95,80,70,29.84,29.55,18,11,30,0.04
2013-2-12,33.0,31.5,30.8,27.5,25.1,24.2,82,77,72,30.04,29.84,13,8,25,0.00
2013-2-14,39.6,37.7,34.8,36.1,33.2,29.0,89,84,78,29.82,29.67,13,9,22,0.03
2013-2-15,34.8,28.2,24.0,29.0,18.7,13.8,81,68,55,30.11,29.82,14,7,22,0.00
2013-2-16,26.2,21.1,15.8,20.3,15.1,12.5,88,77,59,30.10,29.98,10,4,15,0.00
2013-2-17,22.9,16.8,9.8,14.5,8.9,5.7,90,72,51,30.23,30.05,9,4,14,0.00
2013-2-18,44.9,30.7,16.2,35.8,22.0,9.4,82,70,59,30.23,29.61,11,5,18,0.00
2013-2-19,45.6,29.9,19.0,41.4,24.9,11.4,93,81,67,29.91,29.41,16,10,28,0.20
2013-2-20,22.8,20.1,16.6,16.8,12.9,10.1,87,73,64,30.24,29.91,13,9,24,0.00
2013-2-21,26.8,21.4,19.6,17.4,15.0,13.2,82,76,63,30.41,30.24,11,5,14,0.00
2013-2-25,42.0,36.4,30.0,27.8,25.4,22.7,78,65,53,30.24,30.10,6,3,10,0.00
2013-2-26,36.6,32.6,28.9,32.9,27.7,22.3,96,82,68,30.13,29.51,13,8,23,0.23
2013-2-27,36.0,34.5,33.8,34.7,33.4,32.7,97,96,92,29.57,29.45,8,4,13,0.29
2013-2-28,38.4,33.9,30.0,34.5,31.1,25.9,97,89,80,29.95,29.53,12,6,19,0.15